Weather History for Morgantown, WV

Change the Weather History Date:

Saturday, December 12, 1998

  Actual Average Record
Temperature  
Mean Temperature 38 °F 36 °F  
Max Temperature 46 °F 43 °F 71 °F (1965)
Min Temperature 30 °F 28 °F 0 °F (2010)
Degree Days  
Heating Degree Days 27 29  
Month to date heating degree days 333  
Since 1 July heating degree days 1381  
Cooling Degree Days 0 0  
Month to date cooling degree days 0  
Year to date cooling degree days 814  
Moisture  
Dew Point 29 °F    
Average Humidity 72    
Maximum Humidity 93    
Minimum Humidity 46    
Precipitation  
Precipitation 0.00 in 0.10 in 0.91 in (1964)
Month to date precipitation 1.22  
Year to date precipitation 40.14  
Sea Level Pressure  
Sea Level Pressure 30.34 in    
Wind  
Wind Speed 2 mph (East)    
Max Wind Speed 7 mph    
Max Gust Speed -    
Visibility 17 miles    
Events Rain    
T = Trace of Precipitation, MM = Missing Value Source: NWS Daily Summary

Daily Weather History Graph

Daily Weather History Graph

Search for Another Location

Airport:

Trip Planner

Search our weather history database for the weather conditions in past years. The results will help you decide how hot, cold, wet, or windy it might be!

Date:

Astronomy

Dec. 12, 1998 Rise Set
Actual Time 7:31 AM EST 4:55 PM EST
Civil Twilight 7:00 AM EST 5:25 PM EST
Nautical Twilight 6:26 AM EST 5:59 PM EST
Astronomical Twilight 5:54 AM EST 6:32 PM EST
Moon 1:26 AM EST (12/12) 1:42 PM EST (12/12)
Length of Visible Light 10h 25m
Length of Day
9h 24m
Waning Crescent, 32% of the Moon is Illuminated
Dec 12
Waning Crescent
Dec 18
New
Dec 26
First Quarter
Jan 1
Full
Jan 9
Last Quarter

Hourly Weather History & Observations

Time (EST) Temp. Windchill Dew Point Humidity Pressure Visibility Wind Dir Wind Speed Gust Speed Precip Events Conditions
12:50 AM 32.0 °F 27.5 °F 26.6 °F 80% 30.46 in 10.0 mi NNE 4.6 mph - N/A   Overcast
1:50 AM 32.0 °F 27.5 °F 26.6 °F 80% 30.44 in 10.0 mi South 4.6 mph - N/A   Overcast
2:49 AM 32.0 °F - 26.6 °F 80% 30.44 in 10.0 mi Calm Calm - N/A   Overcast
3:50 AM 32.0 °F - 26.6 °F 80% 30.43 in 10.0 mi Calm Calm - N/A   Overcast
4:50 AM 30.2 °F - 26.6 °F 86% 30.42 in 10.0 mi Calm Calm - N/A   Overcast
5:50 AM 30.2 °F - 28.4 °F 93% 30.43 in 10.0 mi Calm Calm - N/A   Overcast
6:50 AM 32.0 °F 28.7 °F 28.4 °F 87% 30.42 in 10.0 mi NNE 3.5 mph - N/A   Overcast
7:45 AM 32.0 °F - 30.2 °F 93% 30.37 in 20.0 mi Calm Calm - N/A   Overcast
8:45 AM 32.0 °F - 30.2 °F 93% 30.36 in 20.0 mi Calm Calm - N/A   Overcast
9:45 AM 35.6 °F - 32.0 °F 87% 30.39 in 20.0 mi Calm Calm - N/A   Overcast
10:45 AM 39.2 °F 35.9 °F 33.8 °F 81% 30.36 in 20.0 mi Variable 4.6 mph - N/A   Overcast
11:45 AM 41.0 °F - 30.2 °F 65% 30.37 in 20.0 mi Calm Calm - N/A   Overcast
12:45 PM 32.0 °F - 30.2 °F 93% 30.33 in 20.0 mi Calm Calm - N/A   Overcast
1:45 PM 46.4 °F - 26.6 °F 46% 30.32 in 20.0 mi Calm Calm - N/A   Overcast
2:45 PM 44.6 °F - 24.8 °F 46% 30.28 in 20.0 mi Calm Calm - N/A   Overcast
3:45 PM 44.6 °F - 24.8 °F 46% 30.29 in 20.0 mi Calm Calm - N/A   Overcast
4:50 PM 44.6 °F - 26.6 °F 49% 30.29 in 20.0 mi Calm Calm - N/A   Overcast
5:45 PM 42.8 °F 38.6 °F 30.2 °F 61% 30.27 in 20.0 mi South 6.9 mph - N/A Rain Light Rain
6:45 PM 42.8 °F - 30.2 °F 61% 30.27 in 20.0 mi Calm Calm - N/A   Overcast
7:45 PM 42.8 °F - 30.2 °F 61% 30.27 in 20.0 mi Calm Calm - N/A   Overcast
8:45 PM 42.8 °F - 30.2 °F 61% 30.26 in 20.0 mi Calm Calm - N/A   Mostly Cloudy
9:45 PM 41.0 °F - 30.2 °F 65% 30.23 in 20.0 mi Calm Calm - N/A   Overcast
10:45 PM 41.0 °F - 30.2 °F 65% 30.21 in 20.0 mi Calm Calm - N/A   Mostly Cloudy
11:45 PM 39.2 °F - 32.0 °F 75% 30.23 in 20.0 mi Calm Calm - N/A   Partly Cloudy